Year,Month,Day,Hour,Minute,Value (Times are PST for temperature in C)
2013,04,25,00,00,8.40
2013,04,25,00,01,8.40
2013,04,25,00,02,8.40
2013,04,25,00,03,8.40
2013,04,25,00,04,8.30
2013,04,25,00,05,8.30
2013,04,25,00,06,8.30
2013,04,25,00,07,8.30
2013,04,25,00,08,8.30
2013,04,25,00,09,8.30
2013,04,25,00,10,8.30
2013,04,25,00,11,8.20
2013,04,25,00,12,8.20
2013,04,25,00,13,8.20
2013,04,25,00,14,8.20
2013,04,25,00,15,8.20
2013,04,25,00,16,8.20
2013,04,25,00,17,8.10
2013,04,25,00,18,8.10
2013,04,25,00,19,8.10
2013,04,25,00,20,8.10
2013,04,25,00,21,8.10
2013,04,25,00,22,8.10
2013,04,25,00,23,8.10
2013,04,25,00,24,8.10
2013,04,25,00,25,8.00
2013,04,25,00,26,8.00
2013,04,25,00,27,8.00
2013,04,25,00,28,8.00
2013,04,25,00,29,8.00
2013,04,25,00,30,8.00
2013,04,25,00,31,8.00
2013,04,25,00,32,7.90
2013,04,25,00,33,7.90
2013,04,25,00,34,7.90
2013,04,25,00,35,7.90
2013,04,25,00,36,7.90
2013,04,25,00,37,7.90
2013,04,25,00,38,7.90
2013,04,25,00,39,7.90
2013,04,25,00,40,7.80
2013,04,25,00,41,7.80
2013,04,25,00,42,7.80
2013,04,25,00,43,7.80
2013,04,25,00,44,7.80
2013,04,25,00,45,7.70
2013,04,25,00,46,7.70
2013,04,25,00,47,7.70
2013,04,25,00,48,7.70
2013,04,25,00,49,7.70
2013,04,25,00,50,7.70
2013,04,25,00,51,7.70
2013,04,25,00,52,7.60
2013,04,25,00,53,7.60
2013,04,25,00,54,7.60
2013,04,25,00,55,7.60
2013,04,25,00,56,7.60
2013,04,25,00,57,7.60
2013,04,25,00,58,7.50
2013,04,25,00,59,7.50
2013,04,25,01,00,7.50
2013,04,25,01,01,7.50
2013,04,25,01,02,7.40
2013,04,25,01,03,7.40
2013,04,25,01,04,7.40
2013,04,25,01,05,7.40
2013,04,25,01,06,7.40
2013,04,25,01,07,7.40
2013,04,25,01,08,7.40
2013,04,25,01,09,7.40
2013,04,25,01,10,7.40
2013,04,25,01,11,7.40
2013,04,25,01,12,7.40
2013,04,25,01,13,7.40
2013,04,25,01,14,7.40
2013,04,25,01,15,7.40
2013,04,25,01,16,7.40
2013,04,25,01,17,7.40
2013,04,25,01,18,7.40
2013,04,25,01,19,7.40
2013,04,25,01,20,7.30
2013,04,25,01,21,7.30
2013,04,25,01,22,7.30
2013,04,25,01,23,7.30
2013,04,25,01,24,7.30
2013,04,25,01,25,7.30
2013,04,25,01,26,7.30
2013,04,25,01,27,7.30
2013,04,25,01,28,7.30
2013,04,25,01,29,7.30
2013,04,25,01,30,7.30
2013,04,25,01,31,7.30
2013,04,25,01,32,7.30
2013,04,25,01,33,7.30
2013,04,25,01,34,7.30
2013,04,25,01,35,7.20
2013,04,25,01,36,7.20
2013,04,25,01,37,7.20
2013,04,25,01,38,7.20
2013,04,25,01,39,7.20
2013,04,25,01,40,7.20
2013,04,25,01,41,7.20
2013,04,25,01,42,7.20
2013,04,25,01,43,7.20
2013,04,25,01,44,7.20
2013,04,25,01,45,7.20
2013,04,25,01,46,7.20
2013,04,25,01,47,7.20
2013,04,25,01,48,7.20
2013,04,25,01,49,7.10
2013,04,25,01,50,7.10
2013,04,25,01,51,7.10
2013,04,25,01,52,7.10
2013,04,25,01,53,7.10
2013,04,25,01,54,7.10
2013,04,25,01,55,7.10
2013,04,25,01,56,7.10
2013,04,25,01,57,7.10
2013,04,25,01,58,7.10
2013,04,25,01,59,7.10
2013,04,25,02,00,7.10
2013,04,25,02,01,7.10
2013,04,25,02,02,7.10
2013,04,25,02,03,7.10
2013,04,25,02,04,7.10
2013,04,25,02,05,7.10
2013,04,25,02,06,7.10
2013,04,25,02,07,7.10
2013,04,25,02,08,7.10
2013,04,25,02,09,7.00
2013,04,25,02,10,7.00
2013,04,25,02,11,7.00
2013,04,25,02,12,7.00
2013,04,25,02,13,7.00
2013,04,25,02,14,6.90
2013,04,25,02,15,6.90
2013,04,25,02,16,6.90
2013,04,25,02,17,6.90
2013,04,25,02,18,6.90
2013,04,25,02,19,6.90
2013,04,25,02,20,6.90
2013,04,25,02,21,6.80
2013,04,25,02,22,6.80
2013,04,25,02,23,6.80
2013,04,25,02,24,6.80
2013,04,25,02,25,6.80
2013,04,25,02,26,6.80
2013,04,25,02,27,6.80
2013,04,25,02,28,6.80
2013,04,25,02,29,6.80
2013,04,25,02,30,6.80
2013,04,25,02,31,6.80
2013,04,25,02,32,6.80
2013,04,25,02,33,6.80
2013,04,25,02,34,6.80
2013,04,25,02,35,6.80
2013,04,25,02,36,6.80
2013,04,25,02,37,6.80
2013,04,25,02,38,6.90
2013,04,25,02,39,6.90
2013,04,25,02,40,6.90
2013,04,25,02,41,6.90
2013,04,25,02,42,6.90
2013,04,25,02,43,6.90
2013,04,25,02,44,6.90
2013,04,25,02,45,6.90
2013,04,25,02,46,6.90
2013,04,25,02,47,6.90
2013,04,25,02,48,6.90
2013,04,25,02,49,6.90
2013,04,25,02,50,6.90
2013,04,25,02,51,6.90
2013,04,25,02,52,6.90
2013,04,25,02,53,6.90
2013,04,25,02,54,6.80
2013,04,25,02,55,6.80
2013,04,25,02,56,6.80
2013,04,25,02,57,6.80
2013,04,25,02,58,6.80
2013,04,25,02,59,6.80
2013,04,25,03,00,6.80
2013,04,25,03,01,6.80
2013,04,25,03,02,6.80
2013,04,25,03,03,6.80
2013,04,25,03,06,6.70
2013,04,25,03,07,6.70
2013,04,25,03,08,6.70
2013,04,25,03,09,6.70
2013,04,25,03,10,6.60
2013,04,25,03,11,6.60
2013,04,25,03,12,6.60
2013,04,25,03,13,6.60
2013,04,25,03,14,6.60
2013,04,25,03,15,6.60
2013,04,25,03,16,6.60
2013,04,25,03,17,6.60
2013,04,25,03,18,6.60
2013,04,25,03,19,6.60
2013,04,25,03,20,6.50
2013,04,25,03,21,6.50
2013,04,25,03,22,6.50
2013,04,25,03,23,6.50
2013,04,25,03,24,6.50
2013,04,25,03,25,6.50
2013,04,25,03,26,6.50
2013,04,25,03,27,6.50
2013,04,25,03,28,6.50
2013,04,25,03,29,6.50
2013,04,25,03,30,6.50
2013,04,25,03,31,6.50
2013,04,25,03,32,6.50
2013,04,25,03,33,6.50
2013,04,25,03,34,6.60
2013,04,25,03,35,6.60
2013,04,25,03,36,6.60
2013,04,25,03,37,6.60
2013,04,25,03,38,6.60
2013,04,25,03,39,6.60
2013,04,25,03,40,6.60
2013,04,25,03,41,6.60
2013,04,25,03,42,6.60
2013,04,25,03,43,6.60
2013,04,25,03,44,6.60
2013,04,25,03,45,6.60
2013,04,25,03,46,6.60
2013,04,25,03,47,6.60
2013,04,25,03,48,6.60
2013,04,25,03,49,6.60
2013,04,25,03,50,6.60
2013,04,25,03,51,6.60
2013,04,25,03,52,6.60
2013,04,25,03,53,6.60
2013,04,25,03,54,6.60
2013,04,25,03,55,6.60
2013,04,25,03,56,6.60
2013,04,25,03,57,6.60
2013,04,25,03,58,6.60
2013,04,25,03,59,6.70
2013,04,25,04,00,6.70
2013,04,25,04,01,6.70
2013,04,25,04,02,6.70
2013,04,25,04,03,6.70
2013,04,25,04,04,6.70
2013,04,25,04,05,6.70
2013,04,25,04,06,6.70
2013,04,25,04,07,6.70
2013,04,25,04,08,6.70
2013,04,25,04,09,6.70
2013,04,25,04,10,6.70
2013,04,25,04,11,6.70
2013,04,25,04,12,6.80
2013,04,25,04,13,6.80
2013,04,25,04,14,6.80
2013,04,25,04,15,6.70
2013,04,25,04,16,6.70
2013,04,25,04,17,6.70
2013,04,25,04,18,6.70
2013,04,25,04,19,6.60
2013,04,25,04,20,6.60
2013,04,25,04,21,6.60
2013,04,25,04,22,6.50
2013,04,25,04,23,6.50
2013,04,25,04,24,6.50
2013,04,25,04,25,6.40
2013,04,25,04,26,6.40
2013,04,25,04,27,6.40
2013,04,25,04,28,6.40
2013,04,25,04,29,6.30
2013,04,25,04,30,6.30
2013,04,25,04,31,6.30
2013,04,25,04,32,6.30
2013,04,25,04,33,6.20
2013,04,25,04,34,6.20
2013,04,25,04,35,6.20
2013,04,25,04,36,6.20
2013,04,25,04,37,6.20
2013,04,25,04,38,6.10
2013,04,25,04,39,6.10
2013,04,25,04,40,6.10
2013,04,25,04,41,6.10
2013,04,25,04,42,6.10
2013,04,25,04,43,6.00
2013,04,25,04,44,6.00
2013,04,25,04,45,6.00
2013,04,25,04,46,6.00
2013,04,25,04,47,6.00
2013,04,25,04,48,6.00
2013,04,25,04,49,6.00
2013,04,25,04,50,6.00
2013,04,25,04,51,6.00
2013,04,25,04,52,6.00
2013,04,25,04,53,6.00
2013,04,25,04,54,5.90
2013,04,25,04,55,5.90
2013,04,25,04,56,5.90
2013,04,25,04,57,5.90
2013,04,25,04,58,5.90
2013,04,25,04,59,5.90
2013,04,25,05,00,5.90
2013,04,25,05,01,5.90
2013,04,25,05,02,5.90
2013,04,25,05,03,5.90
2013,04,25,05,04,5.90
2013,04,25,05,05,5.80
2013,04,25,05,06,5.80
2013,04,25,05,07,5.80
2013,04,25,05,08,5.80
2013,04,25,05,09,5.80
2013,04,25,05,10,5.80
2013,04,25,05,11,5.80
2013,04,25,05,12,5.80
2013,04,25,05,13,5.80
2013,04,25,05,14,5.80
2013,04,25,05,15,5.80
2013,04,25,05,16,5.80
2013,04,25,05,17,5.80
2013,04,25,05,18,5.80
2013,04,25,05,19,5.80
2013,04,25,05,20,5.80
2013,04,25,05,21,5.80
2013,04,25,05,22,5.80
2013,04,25,05,23,5.80
2013,04,25,05,24,5.80
2013,04,25,05,25,5.80
2013,04,25,05,26,5.80
2013,04,25,05,27,5.80
2013,04,25,05,28,5.70
2013,04,25,05,29,5.70
2013,04,25,05,30,5.70
2013,04,25,05,31,5.70
2013,04,25,05,32,5.70
2013,04,25,05,33,5.70
2013,04,25,05,34,5.70
2013,04,25,05,35,5.70
2013,04,25,05,36,5.70
2013,04,25,05,37,5.70
2013,04,25,05,38,5.70
2013,04,25,05,39,5.70
2013,04,25,05,40,5.70
2013,04,25,05,41,5.70
2013,04,25,05,42,5.60
2013,04,25,05,43,5.60
2013,04,25,05,44,5.60
2013,04,25,05,45,5.60
2013,04,25,05,46,5.60
2013,04,25,05,47,5.50
2013,04,25,05,48,5.50
2013,04,25,05,49,5.50
2013,04,25,05,50,5.40
2013,04,25,05,51,5.40
2013,04,25,05,52,5.40
2013,04,25,05,53,5.40
2013,04,25,05,54,5.40
2013,04,25,05,55,5.40
2013,04,25,05,56,5.40
2013,04,25,05,57,5.40
2013,04,25,05,58,5.40
2013,04,25,05,59,5.40
2013,04,25,06,00,5.40
2013,04,25,06,01,5.40
2013,04,25,06,02,5.30
2013,04,25,06,03,5.30
2013,04,25,06,04,5.30
2013,04,25,06,05,5.30
2013,04,25,06,06,5.30
2013,04,25,06,07,5.30
2013,04,25,06,08,5.30
2013,04,25,06,09,5.30
2013,04,25,06,10,5.30
2013,04,25,06,11,5.30
2013,04,25,06,12,5.40
2013,04,25,06,13,5.40
2013,04,25,06,14,5.40
2013,04,25,06,15,5.40
2013,04,25,06,16,5.40
2013,04,25,06,17,5.40
2013,04,25,06,18,5.40
2013,04,25,06,19,5.40
2013,04,25,06,20,5.40
2013,04,25,06,21,5.40
2013,04,25,06,22,5.40
2013,04,25,06,23,5.40
2013,04,25,06,24,5.40
2013,04,25,06,25,5.40
2013,04,25,06,26,5.40
2013,04,25,06,27,5.40
2013,04,25,06,28,5.40
2013,04,25,06,29,5.40
2013,04,25,06,30,5.30
2013,04,25,06,31,5.30
2013,04,25,06,32,5.30
2013,04,25,06,33,5.30
2013,04,25,06,34,5.30
2013,04,25,06,35,5.30
2013,04,25,06,36,5.30
2013,04,25,06,37,5.30
2013,04,25,06,38,5.30
2013,04,25,06,39,5.30
2013,04,25,06,40,5.40
2013,04,25,06,41,5.40
2013,04,25,06,42,5.40
2013,04,25,06,43,5.40
2013,04,25,06,44,5.40
2013,04,25,06,45,5.40
2013,04,25,06,46,5.40
2013,04,25,06,47,5.40
2013,04,25,06,48,5.40
2013,04,25,06,49,5.40
2013,04,25,06,50,5.40
2013,04,25,06,51,5.40
2013,04,25,06,52,5.40
2013,04,25,06,53,5.40
2013,04,25,06,54,5.30
2013,04,25,06,55,5.30
2013,04,25,06,56,5.30
2013,04,25,06,57,5.30
2013,04,25,06,58,5.30
2013,04,25,06,59,5.30
2013,04,25,07,00,5.30
2013,04,25,07,01,5.30
2013,04,25,07,02,5.30
2013,04,25,07,03,5.30
2013,04,25,07,04,5.30
2013,04,25,07,05,5.30
2013,04,25,07,06,5.30
2013,04,25,07,07,5.30
2013,04,25,07,08,5.30
2013,04,25,07,09,5.30
2013,04,25,07,10,5.30
2013,04,25,07,11,5.30
2013,04,25,07,12,5.30
2013,04,25,07,13,5.30
2013,04,25,07,14,5.30
2013,04,25,07,15,5.30
2013,04,25,07,16,5.30
2013,04,25,07,17,5.30
2013,04,25,07,18,5.30
2013,04,25,07,19,5.30
2013,04,25,07,20,5.30
2013,04,25,07,21,5.30
2013,04,25,07,22,5.40
2013,04,25,07,23,5.40
2013,04,25,07,24,5.40
2013,04,25,07,25,5.40
2013,04,25,07,26,5.40
2013,04,25,07,27,5.40
2013,04,25,07,28,5.40
2013,04,25,07,29,5.40
2013,04,25,07,30,5.40
2013,04,25,07,31,5.50
2013,04,25,07,32,5.50
2013,04,25,07,33,5.50
2013,04,25,07,34,5.50
2013,04,25,07,35,5.50
2013,04,25,07,36,5.50
2013,04,25,07,37,5.60
2013,04,25,07,38,5.60
2013,04,25,07,39,5.60
2013,04,25,07,40,5.60
2013,04,25,07,41,5.60
2013,04,25,07,42,5.60
2013,04,25,07,43,5.60
2013,04,25,07,44,5.70
2013,04,25,07,45,5.70
2013,04,25,07,46,5.70
2013,04,25,07,47,5.70
2013,04,25,07,48,5.70
2013,04,25,07,49,5.70
2013,04,25,07,50,5.70
2013,04,25,07,51,5.80
2013,04,25,07,52,5.80
2013,04,25,07,53,5.80
2013,04,25,07,54,5.80
2013,04,25,07,55,5.80
2013,04,25,07,56,5.80
2013,04,25,07,57,5.90
2013,04,25,07,58,5.90
2013,04,25,07,59,5.90
2013,04,25,08,00,5.90
2013,04,25,08,01,5.90
2013,04,25,08,02,6.00
2013,04,25,08,03,6.00
2013,04,25,08,04,6.00
2013,04,25,08,05,6.10
2013,04,25,08,06,6.10
2013,04,25,08,07,6.10
2013,04,25,08,08,6.10
2013,04,25,08,09,6.20
2013,04,25,08,10,6.20
2013,04,25,08,11,6.20
2013,04,25,08,12,6.20
2013,04,25,08,13,6.30
2013,04,25,08,14,6.30
2013,04,25,08,15,6.30
2013,04,25,08,16,6.30
2013,04,25,08,17,6.40
2013,04,25,08,18,6.40
2013,04,25,08,19,6.40
2013,04,25,08,20,6.50
2013,04,25,08,21,6.50
2013,04,25,08,22,6.60
2013,04,25,08,23,6.60
2013,04,25,08,24,6.70
2013,04,25,08,25,6.70
2013,04,25,08,26,6.80
2013,04,25,08,27,6.80
2013,04,25,08,28,6.80
2013,04,25,08,29,6.90
2013,04,25,08,30,6.90
2013,04,25,08,31,7.00
2013,04,25,08,32,7.10
2013,04,25,08,33,7.10
2013,04,25,08,34,7.20
2013,04,25,08,35,7.20
2013,04,25,08,36,7.30
2013,04,25,08,37,7.30
2013,04,25,08,38,7.40
2013,04,25,08,39,7.40
2013,04,25,08,40,7.50
2013,04,25,08,41,7.50
2013,04,25,08,42,7.60
2013,04,25,08,43,7.60
2013,04,25,08,44,7.70
2013,04,25,08,45,7.70
2013,04,25,08,46,7.80
2013,04,25,08,47,7.80
2013,04,25,08,48,7.90
2013,04,25,08,49,7.90
2013,04,25,08,50,8.00
2013,04,25,08,51,8.00
2013,04,25,08,52,8.10
2013,04,25,08,53,8.10
2013,04,25,08,54,8.20
2013,04,25,08,55,8.20
2013,04,25,08,56,8.30
2013,04,25,08,57,8.30
2013,04,25,08,58,8.40
2013,04,25,08,59,8.50
2013,04,25,09,00,8.60
2013,04,25,09,01,8.60
2013,04,25,09,02,8.70
2013,04,25,09,03,8.80
2013,04,25,09,04,8.80
2013,04,25,09,05,8.90
2013,04,25,09,06,9.00
2013,04,25,09,07,9.10
2013,04,25,09,08,9.20
2013,04,25,09,09,9.20
2013,04,25,09,10,9.30
2013,04,25,09,11,9.30
2013,04,25,09,12,9.40
2013,04,25,09,13,9.40
2013,04,25,09,14,9.50
2013,04,25,09,15,9.60
2013,04,25,09,16,9.60
2013,04,25,09,17,9.60
2013,04,25,09,18,9.70
2013,04,25,09,19,9.70
2013,04,25,09,20,9.80
2013,04,25,09,21,9.80
2013,04,25,09,22,9.80
2013,04,25,09,23,9.80
2013,04,25,09,24,9.80
2013,04,25,09,25,9.80
2013,04,25,09,26,9.90
2013,04,25,09,27,9.90
2013,04,25,09,28,9.90
2013,04,25,09,29,9.90
2013,04,25,09,30,9.90
2013,04,25,09,31,9.90
2013,04,25,09,32,9.90
2013,04,25,09,33,9.90
2013,04,25,09,34,9.90
2013,04,25,09,35,9.90
2013,04,25,09,36,9.90
2013,04,25,09,37,9.90
2013,04,25,09,38,9.90
2013,04,25,09,39,9.90
2013,04,25,09,40,10.00
2013,04,25,09,41,10.00
2013,04,25,09,42,10.00
2013,04,25,09,43,10.10
2013,04,25,09,44,10.10
2013,04,25,09,45,10.10
2013,04,25,09,46,10.10
2013,04,25,09,47,10.20
2013,04,25,09,48,10.20
2013,04,25,09,49,10.30
2013,04,25,09,50,10.30
2013,04,25,09,51,10.40
2013,04,25,09,52,10.40
2013,04,25,09,53,10.50
2013,04,25,09,54,10.50
2013,04,25,09,55,10.60
2013,04,25,09,56,10.70
2013,04,25,09,57,10.80
2013,04,25,09,58,10.80
2013,04,25,09,59,10.90
2013,04,25,10,00,10.90
2013,04,25,10,01,11.00
2013,04,25,10,02,11.00
2013,04,25,10,03,11.10
2013,04,25,10,04,11.20
2013,04,25,10,05,11.30
2013,04,25,10,06,11.30
2013,04,25,10,07,11.40
2013,04,25,10,08,11.50
2013,04,25,10,09,11.50
2013,04,25,10,10,11.60
2013,04,25,10,11,11.60
2013,04,25,10,12,11.70
2013,04,25,10,13,11.70
2013,04,25,10,14,11.80
2013,04,25,10,15,11.80
2013,04,25,10,16,11.80
2013,04,25,10,17,11.80
2013,04,25,10,18,11.80
2013,04,25,10,19,11.90
2013,04,25,10,20,11.90
2013,04,25,10,21,12.00
2013,04,25,10,22,12.00
2013,04,25,10,23,12.10
2013,04,25,10,24,12.10
2013,04,25,10,25,12.10
2013,04,25,10,26,12.20
2013,04,25,10,27,12.20
2013,04,25,10,28,12.30
2013,04,25,10,29,12.30
2013,04,25,10,30,12.30
2013,04,25,10,31,12.40
2013,04,25,10,32,12.40
2013,04,25,10,33,12.40
2013,04,25,10,34,12.50
2013,04,25,10,35,12.50
2013,04,25,10,36,12.60
2013,04,25,10,37,12.60
2013,04,25,10,38,12.60
2013,04,25,10,39,12.70
2013,04,25,10,40,12.70
2013,04,25,10,41,12.70
2013,04,25,10,42,12.80
2013,04,25,10,43,12.80
2013,04,25,10,44,12.80
2013,04,25,10,45,12.80
2013,04,25,10,46,12.90
2013,04,25,10,47,12.90
2013,04,25,10,48,12.90
2013,04,25,10,49,13.00
2013,04,25,10,50,13.10
2013,04,25,10,51,13.10
2013,04,25,10,52,13.10
2013,04,25,10,53,13.20
2013,04,25,10,54,13.20
2013,04,25,10,55,13.20
2013,04,25,10,56,13.30
2013,04,25,10,57,13.30
2013,04,25,10,58,13.30
2013,04,25,10,59,13.30
2013,04,25,11,00,13.40
2013,04,25,11,01,13.40
2013,04,25,11,02,13.50
2013,04,25,11,03,13.50
2013,04,25,11,04,13.60
2013,04,25,11,05,13.60
2013,04,25,11,06,13.70
2013,04,25,11,07,13.70
2013,04,25,11,08,13.70
2013,04,25,11,09,13.80
2013,04,25,11,10,13.80
2013,04,25,11,11,13.80
2013,04,25,11,12,13.80
2013,04,25,11,13,13.80
2013,04,25,11,14,13.90
2013,04,25,11,15,13.90
2013,04,25,11,16,14.00
2013,04,25,11,17,14.10
2013,04,25,11,18,14.20
2013,04,25,11,19,14.20
2013,04,25,11,20,14.30
2013,04,25,11,21,14.30
2013,04,25,11,22,14.30
2013,04,25,11,23,14.30
2013,04,25,11,24,14.40
2013,04,25,11,25,14.40
2013,04,25,11,26,14.40
2013,04,25,11,27,14.40
2013,04,25,11,28,14.40
2013,04,25,11,29,14.40
2013,04,25,11,30,14.40
2013,04,25,11,31,14.40
2013,04,25,11,32,14.40
2013,04,25,11,33,14.50
2013,04,25,11,34,14.50
2013,04,25,11,35,14.50
2013,04,25,11,36,14.50
2013,04,25,11,37,14.60
2013,04,25,11,38,14.60
2013,04,25,11,39,14.60
2013,04,25,11,40,14.70
2013,04,25,11,41,14.70
2013,04,25,11,42,14.70
2013,04,25,11,43,14.80
2013,04,25,11,44,14.80
2013,04,25,11,45,14.80
2013,04,25,11,46,14.90
2013,04,25,11,47,14.90
2013,04,25,11,48,14.90
2013,04,25,11,49,14.90
2013,04,25,11,50,14.90
2013,04,25,11,51,14.90
2013,04,25,11,52,15.00
2013,04,25,11,53,15.00
2013,04,25,11,54,15.00
2013,04,25,11,55,15.00
2013,04,25,11,56,15.00
2013,04,25,11,57,15.00
2013,04,25,11,58,15.00
2013,04,25,11,59,15.00
2013,04,25,12,00,15.00
2013,04,25,12,01,15.00
2013,04,25,12,02,15.10
2013,04,25,12,03,15.20
2013,04,25,12,04,15.30
2013,04,25,12,05,15.30
2013,04,25,12,06,15.30
2013,04,25,12,07,15.30
2013,04,25,12,08,15.40
2013,04,25,12,09,15.40
2013,04,25,12,10,15.40
2013,04,25,12,11,15.40
2013,04,25,12,12,15.40
2013,04,25,12,13,15.40
2013,04,25,12,14,15.50
2013,04,25,12,15,15.50
2013,04,25,12,16,15.60
2013,04,25,12,17,15.60
2013,04,25,12,18,15.60
2013,04,25,12,19,15.70
2013,04,25,12,20,15.70
2013,04,25,12,21,15.80
2013,04,25,12,22,15.90
2013,04,25,12,23,15.90
2013,04,25,12,24,16.00
2013,04,25,12,25,16.00
2013,04,25,12,26,16.10
2013,04,25,12,27,16.20
2013,04,25,12,28,16.20
2013,04,25,12,29,16.30
2013,04,25,12,30,16.30
2013,04,25,12,31,16.30
2013,04,25,12,32,16.30
2013,04,25,12,33,16.30
2013,04,25,12,34,16.40
2013,04,25,12,35,16.40
2013,04,25,12,36,16.40
2013,04,25,12,37,16.50
2013,04,25,12,38,16.50
2013,04,25,12,39,16.50
2013,04,25,12,40,16.50
2013,04,25,12,41,16.50
2013,04,25,12,42,16.50
2013,04,25,12,43,16.50
2013,04,25,12,44,16.50
2013,04,25,12,45,16.50
2013,04,25,12,46,16.50
2013,04,25,12,47,16.60
2013,04,25,12,48,16.60
2013,04,25,12,49,16.60
2013,04,25,12,50,16.60
2013,04,25,12,51,16.60
2013,04,25,12,52,16.60
2013,04,25,12,53,16.60
2013,04,25,12,54,16.60
2013,04,25,12,55,16.50
2013,04,25,12,56,16.50
2013,04,25,12,57,16.50
2013,04,25,12,58,16.50
2013,04,25,12,59,16.50
2013,04,25,13,00,16.50
2013,04,25,13,01,16.50
2013,04,25,13,02,16.40
2013,04,25,13,03,16.40
2013,04,25,13,04,16.40
2013,04,25,13,05,16.40
2013,04,25,13,06,16.40
2013,04,25,13,07,16.40
2013,04,25,13,08,16.40
2013,04,25,13,09,16.40
2013,04,25,13,10,16.40
2013,04,25,13,11,16.40
2013,04,25,13,12,16.40
2013,04,25,13,13,16.50
2013,04,25,13,14,16.50
2013,04,25,13,15,16.50
2013,04,25,13,16,16.50
2013,04,25,13,17,16.50
2013,04,25,13,18,16.50
2013,04,25,13,19,16.50
2013,04,25,13,20,16.50
2013,04,25,13,21,16.60
2013,04,25,13,22,16.60
2013,04,25,13,23,16.60
2013,04,25,13,24,16.60
2013,04,25,13,25,16.60
2013,04,25,13,26,16.60
2013,04,25,13,27,16.60
2013,04,25,13,28,16.60
2013,04,25,13,29,16.60
2013,04,25,13,30,16.60
2013,04,25,13,31,16.60
2013,04,25,13,32,16.60
2013,04,25,13,33,16.70
2013,04,25,13,34,16.70
2013,04,25,13,35,16.70
2013,04,25,13,36,16.70
2013,04,25,13,37,16.70
2013,04,25,13,38,16.70
2013,04,25,13,39,16.70
2013,04,25,13,40,16.80
2013,04,25,13,41,16.80
2013,04,25,13,42,16.80
2013,04,25,13,43,16.80
2013,04,25,13,44,16.80
2013,04,25,13,45,16.80
2013,04,25,13,46,16.80
2013,04,25,13,47,16.90
2013,04,25,13,48,16.90
2013,04,25,13,49,17.00
2013,04,25,13,50,17.00
2013,04,25,13,51,17.10
2013,04,25,13,52,17.10
2013,04,25,13,53,17.10
2013,04,25,13,54,17.20
2013,04,25,13,55,17.20
2013,04,25,13,56,17.20
2013,04,25,13,57,17.20
2013,04,25,13,58,17.20
2013,04,25,13,59,17.20
2013,04,25,14,00,17.20
2013,04,25,14,01,17.20
2013,04,25,14,02,17.20
2013,04,25,14,03,17.20
2013,04,25,14,04,17.20
2013,04,25,14,05,17.20
2013,04,25,14,06,17.20
2013,04,25,14,07,17.20
2013,04,25,14,08,17.20
2013,04,25,14,09,17.20
2013,04,25,14,10,17.30
2013,04,25,14,11,17.30
2013,04,25,14,12,17.30
2013,04,25,14,13,17.30
2013,04,25,14,14,17.30
2013,04,25,14,15,17.30
2013,04,25,14,16,17.30
2013,04,25,14,17,17.30
2013,04,25,14,18,17.30
2013,04,25,14,19,17.30
2013,04,25,14,20,17.30
2013,04,25,14,21,17.30
2013,04,25,14,22,17.30
2013,04,25,14,23,17.30
2013,04,25,14,24,17.30
2013,04,25,14,25,17.30
2013,04,25,14,26,17.40
2013,04,25,14,27,17.40
2013,04,25,14,28,17.50
2013,04,25,14,29,17.60
2013,04,25,14,30,17.60
2013,04,25,14,31,17.70
2013,04,25,14,32,17.80
2013,04,25,14,33,17.80
2013,04,25,14,34,17.80
2013,04,25,14,35,17.90
2013,04,25,14,36,17.90
2013,04,25,14,37,18.10
2013,04,25,14,38,18.20
2013,04,25,14,39,18.20
2013,04,25,14,40,18.20
2013,04,25,14,41,18.20
2013,04,25,14,42,18.20
2013,04,25,14,43,18.30
2013,04,25,14,44,18.30
2013,04,25,14,45,18.30
2013,04,25,14,46,18.30
2013,04,25,14,47,18.30
2013,04,25,14,48,18.30
2013,04,25,14,49,18.30
2013,04,25,14,50,18.40
2013,04,25,14,51,18.40
2013,04,25,14,52,18.50
2013,04,25,14,53,18.50
2013,04,25,14,54,18.50
2013,04,25,14,55,18.60
2013,04,25,14,56,18.60
2013,04,25,14,57,18.60
2013,04,25,14,58,18.70
2013,04,25,14,59,18.70
2013,04,25,15,00,18.70
2013,04,25,15,01,18.70
2013,04,25,15,02,18.60
2013,04,25,15,03,18.60
2013,04,25,15,04,18.40
2013,04,25,15,05,18.30
2013,04,25,15,06,18.20
2013,04,25,15,07,18.10
2013,04,25,15,08,18.10
2013,04,25,15,09,18.00
2013,04,25,15,10,17.90
2013,04,25,15,11,17.90
2013,04,25,15,12,17.80
2013,04,25,15,13,17.80
2013,04,25,15,14,17.80
2013,04,25,15,15,17.80
2013,04,25,15,16,17.80
2013,04,25,15,17,17.90
2013,04,25,15,18,17.90
2013,04,25,15,19,18.00
2013,04,25,15,20,18.10
2013,04,25,15,21,18.10
2013,04,25,15,22,18.20
2013,04,25,15,23,18.20
2013,04,25,15,24,18.30
2013,04,25,15,25,18.30
2013,04,25,15,26,18.40
2013,04,25,15,27,18.50
2013,04,25,15,28,18.50
2013,04,25,15,29,18.60
2013,04,25,15,30,18.70
2013,04,25,15,31,18.80
2013,04,25,15,32,18.80
2013,04,25,15,33,18.90
2013,04,25,15,34,18.90
2013,04,25,15,35,18.90
2013,04,25,15,36,19.00
2013,04,25,15,37,19.10
2013,04,25,15,38,19.10
2013,04,25,15,39,19.20
2013,04,25,15,40,19.20
2013,04,25,15,41,19.20
2013,04,25,15,42,19.20
2013,04,25,15,43,19.20
2013,04,25,15,44,19.20
2013,04,25,15,45,19.20
2013,04,25,15,46,19.20
2013,04,25,15,47,19.10
2013,04,25,15,48,19.10
2013,04,25,15,49,19.10
2013,04,25,15,50,19.10
2013,04,25,15,51,19.10
2013,04,25,15,52,19.10
2013,04,25,15,53,19.20
2013,04,25,15,54,19.20
2013,04,25,15,55,19.20
2013,04,25,15,56,19.30
2013,04,25,15,57,19.30
2013,04,25,15,58,19.40
2013,04,25,15,59,19.50
2013,04,25,16,00,19.50
2013,04,25,16,01,19.60
2013,04,25,16,02,19.60
2013,04,25,16,03,19.60
2013,04,25,16,04,19.60
2013,04,25,16,05,19.50
2013,04,25,16,06,19.40
2013,04,25,16,07,19.30
2013,04,25,16,08,19.20
2013,04,25,16,09,19.10
2013,04,25,16,10,19.10
2013,04,25,16,11,19.00
2013,04,25,16,12,19.00
2013,04,25,16,13,19.00
2013,04,25,16,14,18.90
2013,04,25,16,15,18.90
2013,04,25,16,16,19.00
2013,04,25,16,17,19.00
2013,04,25,16,18,19.00
2013,04,25,16,19,19.10
2013,04,25,16,20,19.10
2013,04,25,16,21,19.10
2013,04,25,16,22,19.10
2013,04,25,16,23,19.10
2013,04,25,16,24,19.10
2013,04,25,16,25,19.10
2013,04,25,16,26,19.00
2013,04,25,16,27,19.00
2013,04,25,16,28,19.00
2013,04,25,16,29,19.10
2013,04,25,16,30,19.10
2013,04,25,16,31,19.10
2013,04,25,16,32,19.10
2013,04,25,16,33,19.10
2013,04,25,16,34,19.20
2013,04,25,16,35,19.20
2013,04,25,16,36,19.20
2013,04,25,16,37,19.30
2013,04,25,16,38,19.30
2013,04,25,16,39,19.30
2013,04,25,16,40,19.20
2013,04,25,16,41,19.10
2013,04,25,16,42,19.10
2013,04,25,16,43,18.90
2013,04,25,16,44,18.90
2013,04,25,16,45,18.80
2013,04,25,16,46,18.70
2013,04,25,16,47,18.60
2013,04,25,16,48,18.60
2013,04,25,16,49,18.50
2013,04,25,16,50,18.40
2013,04,25,16,51,18.30
2013,04,25,16,52,18.30
2013,04,25,16,53,18.30
2013,04,25,16,54,18.30
2013,04,25,16,55,18.30
2013,04,25,16,56,18.20
2013,04,25,16,57,18.20
2013,04,25,16,58,18.20
2013,04,25,16,59,18.20
2013,04,25,17,00,18.20
2013,04,25,17,01,18.30
2013,04,25,17,02,18.30
2013,04,25,17,03,18.30
2013,04,25,17,04,18.30
2013,04,25,17,05,18.20
2013,04,25,17,06,18.20
2013,04,25,17,07,18.20
2013,04,25,17,08,18.20
2013,04,25,17,09,18.20
2013,04,25,17,10,18.20
2013,04,25,17,11,18.20
2013,04,25,17,12,18.20
2013,04,25,17,13,18.20
2013,04,25,17,14,18.20
2013,04,25,17,15,18.10
2013,04,25,17,16,18.10
2013,04,25,17,17,18.10
2013,04,25,17,18,18.10
2013,04,25,17,19,18.10
2013,04,25,17,20,18.10
2013,04,25,17,21,18.10
2013,04,25,17,22,18.20
2013,04,25,17,23,18.20
2013,04,25,17,24,18.20
2013,04,25,17,25,18.20
2013,04,25,17,26,18.20
2013,04,25,17,27,18.30
2013,04,25,17,28,18.30
2013,04,25,17,29,18.40
2013,04,25,17,30,18.40
2013,04,25,17,31,18.40
2013,04,25,17,32,18.40
2013,04,25,17,33,18.40
2013,04,25,17,34,18.40
2013,04,25,17,35,18.50
2013,04,25,17,36,18.50
2013,04,25,17,37,18.50
2013,04,25,17,38,18.60
2013,04,25,17,39,18.60
2013,04,25,17,40,18.60
2013,04,25,17,41,18.60
2013,04,25,17,42,18.60
2013,04,25,17,43,18.60
2013,04,25,17,44,18.50
2013,04,25,17,45,18.50
2013,04,25,17,46,18.40